This demonstration page uses our WeatherBlox Daily Observations layout. Learn more.

Left ArrowRight Arrow

39.29038, -76.61219

Hourly Observations for October 26, 2016

Temp ( °F °C ) Dew Point ( °F °C ) Humidity (%) Winds ( mph kmh ) Pressure ( in mb ) Visibility ( mi km ) Precip ( " mm )
12:54 am 00:54 undefined 49 9.4 29 -1.7 46 46 undefined N/A 30.40 1030 N/A 0.00 0.00
1:54 am 01:54 undefined 46 7.8 31 -0.6 56 56 undefined N/A 30.41 1030 N/A 0.00 0.00
2:54 am 02:54 undefined 47 8.3 28 -2.2 48 48 undefined N/A 30.42 1030 N/A 0.00 0.00
3:54 am 03:54 undefined 45 7.2 31 -0.6 58 58 undefined N/A 30.40 1030 N/A 0.00 0.00
4:54 am 04:54 undefined 46 7.8 28 -2.2 50 50 undefined N/A 30.42 1030 N/A 0.00 0.00
5:54 am 05:54 undefined 45 7.2 28 -2.2 52 52 undefined N/A 30.43 1030 N/A 0.00 0.00
6:54 am 06:54 undefined 45 7.2 30 -1.1 56 56 undefined N/A 30.44 1031 N/A 0.00 0.00
7:54 am 07:54 undefined 44 6.7 30 -1.1 58 58 undefined N/A 30.45 1031 N/A 0.00 0.00
8:54 am 08:54 undefined 46 7.8 30 -1.1 54 54 undefined N/A 30.47 1032 N/A 0.00 0.00
9:54 am 09:54 undefined 48 8.9 30 -1.1 50 50 undefined N/A 30.48 1032 N/A 0.00 0.00
10:54 am 10:54 undefined 49 9.4 29 -1.7 46 46 undefined N/A 30.48 1032 N/A 0.00 0.00
11:54 am 11:54 undefined 51 10.6 30 -1.1 44 44 undefined N/A 30.46 1032 N/A 0.00 0.00
12:54 pm 12:54 undefined 54 12.2 29 -1.7 38 38 undefined N/A 30.44 1031 N/A 0.00 0.00
1:54 pm 13:54 undefined 55 12.8 30 -1.1 38 38 undefined N/A 30.42 1030 N/A 0.00 0.00
2:54 pm 14:54 undefined 58 14.4 30 -1.1 35 35 undefined N/A 30.40 1029 N/A 0.00 0.00
3:54 pm 15:54 undefined 56 13.3 30 -1.1 37 37 undefined N/A 30.38 1029 N/A 0.00 0.00
4:54 pm 16:54 undefined 54 12.2 35 1.7 49 49 undefined N/A 30.38 1029 N/A 0.00 0.00
5:54 pm 17:54 undefined 53 11.7 36 2.2 52 52 undefined N/A 30.38 1029 N/A 0.00 0.00
6:54 pm 18:54 undefined 53 11.7 35 1.7 51 51 undefined N/A 30.39 1029 N/A 0.00 0.00
7:54 pm 19:54 undefined 53 11.7 35 1.7 51 51 undefined N/A 30.40 1029 N/A 0.00 0.00
8:54 pm 20:54 undefined 53 11.7 36 2.2 52 52 undefined N/A 30.42 1030 N/A 0.00 0.00
9:54 pm 21:54 undefined 53 11.7 34 1.1 48 48 undefined N/A 30.40 1030 N/A 0.00 0.00
10:54 pm 22:54 undefined 52 11.1 35 1.7 53 53 undefined N/A 30.41 1030 N/A 0.00 0.00
11:54 pm 23:54 undefined 52 11.1 33 0.6 49 49 undefined N/A 30.40 1030 N/A 0.00 0.00

Powered by AerisWeather